Dewpoint
27 23 20 18 20 18 17 17 16 17 21 21 21 21 21 22 24 25 27 27 28 29 31 38 39 42 43 43 42 42 43 43 42 40 39 37 36 34 33 32 30 28 28 29
27 21 21 22 24 21 20 18 18 19 22 21 21 20 22 23 24 25 27 29 30 31 30 35 39 43 44 43 42 43 43 43 42 41 40 38 36 34 32 31 30 29 28 30
23 21 25 24 23 21 20 19 18 19 22 23 22 21 21 21 24 25 27 29 31 32 31 33 39 42 44 43 43 43 44 44 42 41 40 38 35 33 31 30 30 29 29 30
24 24 23 22 20 20 19 21 21 22 21 17 22 16 15 14 15 23 25 27 31 33 33 35 38 41 44 44 44 43 44 44 42 41 40 37 35 32 31 30 30 29 29 30
24 25 24 23 22 22 20 24 22 23 22 21 21 20 14 18 16 17 22 24 29 33 35 36 38 40 42 43 44 44 44 44 42 42 40 38 36 35 33 30 29 28 29 30
23 27 25 24 25 23 25 24 25 25 23 20 20 18 16 12 19 18 23 26 32 35 34 36 38 39 41 43 44 44 43 44 42 42 41 40 39 37 33 30 29 28 28 29
26 25 26 25 23 24 24 22 18 21 24 17 21 19 18 20 23 24 24 27 33 36 36 36 38 38 40 42 43 43 42 43 42 42 42 41 41 39 35 32 30 28 27 28
22 23 26 26 23 20 24 22 20 10 8 5 22 19 17 21 27 28 28 28 32 34 36 38 38 39 39 41 41 41 41 42 42 42 42 42 42 41 38 34 32 30 29 30
16 13 27 25 24 25 23 22 24 21 18 15 15 14 12 25 25 28 29 30 31 34 34 35 37 39 38 39 40 40 39 40 41 41 42 41 41 40 38 35 33 30 29 29
22 19 20 25 25 25 24 24 20 21 14 9 9 8 11 20 23 25 28 29 31 33 33 33 34 36 37 38 38 39 38 37 36 37 36 35 35 35 34 33 31 28 26 25
24 21 19 23 23 21 23 22 23 22 18 14 11 12 11 21 26 25 27 28 30 31 32 32 32 32 33 35 35 36 35 32 30 29 28 27 27 27 27 27 27 25 24 23
23 22 19 18 21 22 21 21 20 19 17 16 14 15 18 17 26 28 27 29 29 30 31 31 30 30 30 30 30 30 30 28 27 25 24 23 23 23 24 25 24 24 22 22
29 25 22 21 21 22 23 22 22 22 22 22 20 21 22 25 27 27 29 28 28 30 30 30 29 29 30 30 30 30 30 29 29 29 29 30 30 31 31 31 31 30 30 32
36 33 30 26 23 28 30 29 30 29 27 26 24 23 22 16 17 20 25 32 29 30 29 29 28 27 26 26 26 27 29 30 30 31 31 30 30 31 31 31 32 32 32 31
32 27 30 32 32 32 33 34 34 32 33 28 27 22 13 14 16 18 19 31 30 28 27 26 23 23 23 23 24 24 26 27 29 29 28 28 30 30 30 30 31 31 31 31
28 22 25 24 22 25 28 17 19 13 10 13 16 14 17 17 15 13 17 17 17 18 19 20 20 20 21 22 22 23 24 25 26 25 25 26 26 27 27 28 28 29 29 30
9 14 19 17 17 18 21 11 11 9 8 10 5 9 13 15 13 13 14 16 16 18 19 19 19 19 19 20 21 21 23 24 24 24 24 23 24 23 23 24 25 24 24 24
7 13 20 20 21 17 8 14 12 7 7 7 8 9 12 13 15 14 15 15 15 15 16 17 18 17 18 18 19 20 21 22 21 20 20 20 20 21 21 19 17 13 10 10
16 23 16 19 16 10 13 9 6 6 4 8 7 8 9 13 18 13 15 16 15 15 16 16 18 17 17 16 17 18 18 19 19 18 18 17 16 14 10 7 5 4 4 4
10 11 12 12 8 11 4 6 9 11 3 8 8 7 8 9 5 9 15 15 15 16 16 15 16 17 17 16 16 15 15 16 16 17 15 7 0 1 0 -1 -2 -1 1 1
12 11 12 12 11 5 5 8 10 6 2 8 8 8 8 6 9 13 14 13 14 15 14 16 15 15 15 17 15 11 4 6 9 7 -1 -5 -3 -2 -3 -4 -4 -2 -1 -1
7 6 8 9 9 6 8 4 2 5 6 8 7 8 7 8 9 10 11 12 12 10 6 5 6 6 6 9 9 -2 -6 -4 1 -2 -5 -5 -4 -3 -5 -5 -4 -2 -1 -1
7 4 5 5 4 6 9 7 9 10 7 7 7 7 7 7 5 5 4 3 2 0 0 -0 1 3 4 3 -2 -7 -7 -6 -5 -4 -5 -5 -5 -5 -5 -4 -4 -3 -1 1
7 6 5 4 6 3 8 11 10 10 8 5 5 5 3 3 1 1 -0 -0 0 0 1 1 3 2 -1 -4 -4 -3 -3 -2 -2 -2 -2 -2 -1 -0 -0 -0 1 3 3 1
2 4 1 5 3 3 9 5 6 9 8 4 4 3 3 2 1 1 1 0 1 1 0 2 1 -4 -4 -3 -3 -3 -2 -2 -2 -1 -1 1 1 2 2 2 2 3 3 3
2 -0 -0 0 3 3 1 1 2 7 4 3 1 2 1 0 0 -0 0 0 -1 -1 0 -2 -4 -3 -3 -2 -2 -2 -2 -1 -1 0 1 1 2 3 3 4 5 5 7 8
Wind_Speed
11 11 19 18 21 24 18 17 20 21 4 7 22 27 30 25 23 25 24 23 22 21 19 20 22 22 23 22 23 23 22 21 17 15 14 12 12 10 8 6 5 6 5 5
6 21 21 18 9 13 17 20 25 22 4 6 21 27 30 31 30 28 27 21 20 18 17 19 22 23 24 25 24 23 22 22 19 15 13 11 11 8 8 7 6 6 6 5
22 11 3 9 15 16 20 22 23 21 5 15 19 25 28 24 10 9 10 9 10 12 14 19 23 24 23 25 25 24 23 22 20 16 13 10 10 8 7 9 8 7 7 6
17 24 15 13 17 16 22 15 18 17 10 17 1 24 21 24 25 14 13 13 12 10 10 17 22 24 24 23 21 22 22 21 19 18 15 17 15 13 11 12 10 9 8 8
8 7 11 17 19 13 8 2 4 9 15 19 18 15 9 2 14 18 11 7 9 6 9 15 19 22 22 22 22 21 21 21 20 19 17 16 14 12 12 12 12 10 9 8
24 0 6 15 2 7 7 3 4 5 8 17 22 24 18 16 11 14 10 9 7 4 6 10 15 18 20 18 19 19 20 20 20 19 18 17 14 13 13 13 13 11 10 9
15 24 8 9 11 5 11 8 8 10 9 14 3 11 25 3 4 4 12 11 7 4 5 9 14 17 19 20 20 19 21 20 20 19 16 15 13 13 14 14 13 13 11 10
13 15 18 15 21 9 19 20 12 14 19 21 7 11 8 16 2 4 5 4 5 4 4 4 9 13 16 18 20 20 21 21 20 19 16 13 12 11 11 14 11 11 11 10
13 23 4 12 4 11 7 15 13 23 30 28 24 28 26 6 6 7 9 8 8 7 5 4 4 9 13 16 18 19 19 18 17 17 15 15 14 14 13 14 12 11 12 12
12 20 12 7 4 7 8 2 7 9 12 24 23 24 21 10 16 15 13 11 9 7 6 5 4 5 8 11 13 15 16 15 15 14 14 13 12 11 10 11 13 13 11 12
10 13 23 5 12 17 11 12 11 9 21 26 31 21 15 5 7 2 9 12 11 10 8 6 5 5 5 6 9 11 13 14 13 13 12 12 10 10 10 10 10 10 11 11
14 11 27 30 24 21 25 24 27 26 24 24 29 37 17 23 4 4 7 7 10 10 9 8 7 6 6 7 7 8 9 11 11 10 11 11 11 11 12 12 11 11 11 10
12 9 21 23 23 20 12 23 23 28 28 32 32 40 18 22 33 36 26 2 9 12 10 8 6 6 8 9 9 7 8 7 7 8 11 10 11 12 11 12 11 10 8 6
9 7 19 27 20 25 5 14 19 22 19 32 35 38 18 36 36 35 36 27 4 8 8 8 9 11 13 12 11 9 10 8 7 8 8 9 7 8 10 10 9 10 8 8
6 7 13 17 21 24 28 30 26 27 22 22 19 11 23 27 31 32 33 28 15 13 11 13 14 14 14 14 13 13 14 13 11 11 11 10 9 9 9 10 10 10 9 8
9 15 17 28 27 24 27 23 13 16 18 10 14 12 19 17 21 29 29 28 28 25 22 20 18 17 16 14 13 12 13 13 12 12 12 10 9 8 7 8 7 8 7 7
25 12 14 25 23 22 19 21 17 17 21 12 14 17 24 18 19 22 23 24 23 20 16 15 13 12 13 12 11 11 10 9 9 9 9 9 8 8 7 5 5 4 2 2
19 20 18 21 24 22 9 12 13 21 19 20 17 22 23 21 9 21 22 20 20 19 19 18 15 14 14 14 14 11 11 10 10 10 9 9 9 8 6 6 3 1 2 3
3 2 7 5 10 9 2 12 8 4 7 18 18 21 23 33 8 18 18 17 16 15 15 15 13 10 11 12 13 12 11 9 8 8 8 8 6 6 7 7 7 5 6 6
11 11 6 7 7 4 4 20 17 8 5 20 19 21 22 22 14 14 18 16 15 13 13 13 14 12 10 10 10 9 9 8 7 5 5 7 6 6 6 7 8 8 7 7
9 8 7 8 4 5 17 21 3 1 9 21 18 17 19 16 14 17 18 15 14 14 15 15 13 13 11 8 8 12 11 8 7 5 7 8 9 8 8 9 9 9 8 8
6 7 6 6 5 3 24 6 7 8 13 15 16 16 17 17 17 17 17 18 18 18 17 15 13 13 13 10 10 11 11 9 7 9 10 9 10 10 9 10 11 10 9 10
3 5 4 5 3 10 7 8 4 7 11 15 17 16 17 18 18 19 19 18 16 17 16 15 13 14 13 11 11 13 12 10 11 12 13 12 11 11 12 13 12 11 10 10
3 12 3 4 2 15 4 3 11 8 11 16 16 16 17 19 19 20 18 18 18 17 17 16 15 15 15 14 12 13 13 12 12 13 14 13 13 13 13 12 12 12 11 11
6 10 9 3 7 11 7 15 18 19 12 16 16 16 18 19 21 20 19 20 19 19 18 17 17 18 18 17 16 15 15 14 14 14 14 14 14 13 14 14 12 12 12 13
8 5 6 3 11 7 18 19 22 16 17 18 19 22 19 18 20 20 19 18 18 18 20 19 19 19 20 19 19 17 15 14 15 15 15 13 13 12 13 13 13 16 20 21
Wind_Direction
198 226 227 235 232 257 291 276 276 277 186 230 255 264 270 269 266 261 252 253 249 235 223 198 200 187 182 183 179 179 177 176 172 174 176 175 175 167 158 141 136 132 119 111
209 240 249 261 271 261 253 264 268 279 198 235 271 273 277 273 264 259 258 249 243 247 224 194 191 186 185 183 180 180 181 177 178 178 180 178 167 172 156 145 141 134 129 121
237 249 46 224 240 243 246 252 264 273 273 247 278 280 271 263 251 256 259 244 228 214 207 198 191 191 185 185 182 181 180 178 180 179 167 161 141 137 157 166 155 153 141 130
254 259 236 230 246 242 262 268 255 267 270 276 159 290 281 277 267 221 216 220 218 204 210 199 197 193 190 187 183 180 179 178 182 179 172 173 176 176 184 174 163 160 156 146
225 214 220 231 243 228 249 26 247 252 260 280 259 266 284 319 253 249 233 203 187 195 198 191 196 195 192 185 182 180 178 180 181 183 184 184 191 185 165 168 164 165 163 159
257 81 241 235 197 229 128 169 215 242 258 261 253 239 279 273 218 249 169 175 174 174 179 188 188 188 188 179 179 179 180 183 182 186 192 192 192 173 170 171 172 171 170 166
246 236 229 203 232 198 203 206 262 238 214 254 189 251 242 251 249 267 204 187 173 159 158 176 183 187 187 185 183 184 184 186 185 188 192 195 194 180 181 176 175 174 174 177
265 263 197 195 221 234 206 211 215 250 249 272 141 238 254 235 263 195 207 225 174 170 152 173 189 193 193 187 190 189 189 188 187 187 189 195 197 184 185 182 179 177 175 173
267 260 136 186 228 206 181 216 252 267 274 276 261 265 269 175 231 237 226 216 211 184 164 166 197 204 194 195 195 193 190 187 189 187 184 190 195 195 191 182 183 183 171 167
273 279 257 148 187 229 232 355 220 217 260 253 261 263 264 240 225 219 223 223 208 181 168 167 183 188 191 193 189 190 190 183 183 181 182 187 188 189 184 178 182 171 167 163
268 254 260 165 207 229 209 236 228 277 249 261 268 265 270 343 16 243 236 223 203 188 183 168 170 160 163 168 176 183 180 177 175 174 171 167 166 165 163 169 164 164 161 159
263 277 270 259 254 239 250 241 236 239 256 251 257 261 270 288 315 260 245 183 175 180 170 167 155 147 147 152 153 163 166 168 168 161 159 149 147 151 148 147 150 150 146 153
349 253 261 272 253 226 242 243 246 260 272 265 267 265 283 23 4 352 340 245 185 157 147 133 114 101 81 71 64 71 81 87 88 98 115 118 121 117 111 101 89 87 111 119
317 247 251 255 272 319 261 260 277 281 265 259 254 267 335 357 352 349 338 316 171 113 111 91 74 59 55 53 54 55 63 85 105 114 121 125 124 128 134 137 140 141 147 152
30 301 324 310 307 305 301 295 299 283 266 258 302 349 10 5 356 357 358 9 54 67 65 67 69 63 56 51 44 39 40 38 56 70 72 73 83 93 116 124 130 136 144 152
211 275 274 278 279 279 276 21 6 25 1 351 7 84 11 14 11 16 15 25 38 42 44 44 47 54 50 48 48 44 36 35 49 57 56 49 51 60 66 76 95 110 117 125
295 289 300 280 296 299 275 28 77 69 38 11 15 343 345 353 26 24 22 23 22 21 30 38 38 41 44 34 32 35 32 34 49 60 60 49 34 33 18 42 68 78 106 159
274 283 267 276 292 261 98 47 64 93 49 27 3 350 345 339 54 37 24 19 21 13 16 20 25 19 25 22 17 22 29 30 33 39 44 36 21 8 349 333 325 283 255 247
178 332 318 302 336 117 209 15 351 1 53 18 1 352 347 342 161 43 23 14 12 9 7 6 9 15 13 21 9 5 12 13 23 31 12 9 357 331 318 309 305 303 294 276
360 359 245 316 276 283 43 324 312 222 190 5 1 355 353 352 6 352 359 359 357 356 357 2 354 356 4 3 356 354 352 343 338 352 336 305 302 290 290 294 297 291 281 279
355 354 11 343 318 97 353 328 328 257 330 343 350 347 345 348 335 327 336 341 344 342 344 348 341 336 333 331 333 324 314 303 296 294 303 302 295 290 291 290 274 273 272 271
33 344 8 324 311 260 5 22 53 325 326 335 337 339 328 327 325 327 329 331 334 328 328 329 324 324 320 313 307 310 307 314 308 302 296 293 288 284 282 280 273 268 266 266
354 1 347 10 39 347 39 77 16 338 330 334 325 326 321 318 318 319 319 320 319 317 318 319 319 316 309 307 305 302 303 310 302 298 295 289 283 276 273 270 271 269 262 257
44 15 6 304 45 341 155 97 2 336 333 322 315 316 315 314 315 315 316 315 315 318 317 317 315 310 310 310 306 296 298 299 293 287 285 286 282 279 273 268 262 262 259 260
351 316 329 279 2 347 199 337 328 327 325 322 314 314 310 314 311 312 311 313 313 314 315 312 312 309 307 309 304 301 298 296 289 287 284 282 279 277 274 269 265 264 259 254
359 356 346 307 335 298 293 312 310 310 322 317 317 315 316 310 307 310 308 309 309 307 309 311 305 303 303 303 300 298 297 293 288 285 282 275 272 270 270 271 270 267 265 261